This is the latest recevied weather packets stored in our database for station/object YD2CLX-13. If no packets are shown the sender has not sent any weather packets the latest 10 day(s).
| Time | Temp. | Humidity | Pressure | Rain* | Wind** | Luminosity | Snow |
|---|---|---|---|---|---|---|---|
| 1777422067 | 21.11° C | 65% | 797.8 hPa | 0 mm | - | - | - |
| 1777421460 | 20° C | 64% | 797.8 hPa | 0 mm | - | - | - |
| 1777420852 | 17.78° C | 65% | 797.7 hPa | 0 mm | - | - | - |
| 1777420244 | 13.33° C | 67% | 797.8 hPa | 0 mm | - | - | - |
| 1777419634 | 10.56° C | 68% | 797.6 hPa | 0 mm | - | - | - |
| 1777419025 | 11.11° C | 67% | 797.4 hPa | 0 mm | - | - | - |
| 1777418417 | 10.56° C | 67% | 797.2 hPa | 0 mm | - | - | - |
| 1777417809 | 10.56° C | 67% | 797 hPa | 0 mm | - | - | - |
| 1777417202 | 10.56° C | 67% | 796.9 hPa | 0 mm | - | - | - |
| 1777415982 | 10.56° C | 68% | 796.8 hPa | 0 mm | - | - | - |
| 1777415374 | 10° C | 68% | 796.7 hPa | 0 mm | - | - | - |
| 1777414765 | 10.56° C | 69% | 796.6 hPa | 0 mm | - | - | - |
| 1777414154 | 10° C | 70% | 796.5 hPa | 0 mm | - | - | - |
| 1777413545 | 10° C | 70% | 796.5 hPa | 0 mm | - | - | - |
| 1777412937 | 10° C | 70% | 796.5 hPa | 0 mm | - | - | - |
| 1777412329 | 10° C | 70% | 796.5 hPa | 0 mm | - | - | - |
| 1777411720 | 10° C | 70% | 796.6 hPa | 0 mm | - | - | - |
| 1777411110 | 10° C | 70% | 796.5 hPa | 0 mm | - | - | - |
| 1777410502 | 10° C | 69% | 796.4 hPa | 0 mm | - | - | - |
| 1777409892 | 10.56° C | 69% | 796.5 hPa | 0 mm | - | - | - |
| 1777409284 | 10.56° C | 69% | 796.3 hPa | 0 mm | - | - | - |
| 1777408672 | 10.56° C | 69% | 796.3 hPa | 0 mm | - | - | - |
| 1777407457 | 10° C | 69% | 796.4 hPa | 0 mm | - | - | - |
| 1777406848 | 10.56° C | 70% | 796.4 hPa | 0 mm | - | - | - |
| 1777406241 | 10.56° C | 70% | 796.5 hPa | 0 mm | - | - | - |
* Rain latest hour (hover to see other rain measurements)
** Current wind speed in m/s (hover to see current wind gust speed)